Newton, KS

12:34 PM CST on November 12, 2019 (GMT -0600)
Newton City County

Weather History for KEWK - August, 2019

Change the Weather History Date:

Thursday, August 15, 2019

  Actual Average Record
Temperature  
Mean Temperature 76 °F -  
Max Temperature 88 °F 86 °F 102 °F (2007)
Min Temperature 64 °F 64 °F 57 °F (2004)
Cooling Degree Days 11    
Growing Degree Days 26 (Base 50)    
Moisture  
Dew Point 68 °F    
Average Humidity 74    
Maximum Humidity 93    
Minimum Humidity 59    
Precipitation  
Precipitation 0.00 in - - ()
Sea Level Pressure  
Sea Level Pressure 29.95 in    
Wind  
Wind Speed 11 mph (SSE)    
Max Wind Speed 21 mph    
Max Gust Speed 24 mph    
Visibility 10 miles    
Events      
Averages and records for this station are not official NWS values.
T = Trace of Precipitation, MM = Missing Value Source: NWS Daily Summary

Daily Weather History Graph

Daily Weather History Graph

Search for Another Location

Airport or City:

Astronomy

Aug. 15, 2019 Rise Set
Actual Time 6:44 AM CDT 8:22 PM CDT
Civil Twilight 6:15 AM CDT 8:50 PM CDT
Nautical Twilight 5:41 AM CDT 9:24 PM CDT
Astronomical Twilight 5:05 AM CDT 10:00 PM CDT
Moon 8:51 PM CDT (8/15) 6:40 AM CDT (8/15)
Length of Visible Light 14h 34m
Length of Day
13h 38m
Full, 100% of the Moon is Illuminated
Aug 15
Full
Aug 23
Last Quarter
Aug 30
New
Sep 5
First Quarter
Sep 13
Full

Hourly Weather History & Observations

Time (CDT) Temp. Heat Index Dew Point Humidity Pressure Visibility Wind Dir Wind Speed Gust Speed Precip Events Conditions
1:56 AM 68.0 °F - 64.0 °F 87% 30.06 in 10.0 mi ESE 8.1 mph - N/A   Unknown
2:56 AM 69.1 °F - 63.0 °F 81% 30.05 in 10.0 mi ESE 9.2 mph - N/A   Unknown
3:56 AM 68.0 °F - 64.0 °F 87% 30.06 in 10.0 mi East 5.8 mph - N/A   Unknown
4:56 AM 68.0 °F - 63.0 °F 84% 30.05 in 10.0 mi ESE 8.1 mph - N/A   Unknown
5:56 AM 66.9 °F - 63.0 °F 87% 30.04 in 10.0 mi ESE 6.9 mph - N/A   Unknown
6:56 AM 64.9 °F - 63.0 °F 93% 30.04 in 10.0 mi ESE 6.9 mph - N/A   Unknown
7:56 AM 68.0 °F - 64.0 °F 87% 30.05 in 10.0 mi SE 10.4 mph - N/A   Unknown
8:56 AM 71.1 °F - 64.9 °F 81% 30.04 in 10.0 mi SE 11.5 mph - N/A   Unknown
10:56 AM 78.1 °F - 66.9 °F 68% 30.02 in 10.0 mi SSE 13.8 mph 19.6 mph N/A   Unknown
11:56 AM 82.0 °F 85.9 °F 70.0 °F 67% 29.99 in 10.0 mi South 13.8 mph - N/A   Unknown
12:56 PM 84.0 °F 89.0 °F 71.1 °F 65% 29.96 in 10.0 mi South 16.1 mph 23.0 mph N/A   Unknown
1:56 PM 86.0 °F 92.2 °F 72.0 °F 63% 29.94 in 10.0 mi South 13.8 mph 21.9 mph N/A   Unknown
2:56 PM 87.1 °F 95.4 °F 73.9 °F 65% 29.90 in 10.0 mi South 15.0 mph - N/A   Unknown
3:56 PM 88.0 °F 95.6 °F 73.0 °F 61% 29.87 in 10.0 mi South 16.1 mph 24.2 mph N/A   Unknown
4:56 PM 88.0 °F 95.6 °F 73.0 °F 61% 29.85 in 10.0 mi South 20.7 mph 24.2 mph N/A   Unknown
5:56 PM 88.0 °F 94.7 °F 72.0 °F 59% 29.85 in 10.0 mi South 18.4 mph 23.0 mph N/A   Unknown
6:56 PM 86.0 °F 92.2 °F 72.0 °F 63% 29.83 in 10.0 mi SSE 17.3 mph - N/A   Unknown
7:56 PM 82.9 °F 87.5 °F 71.1 °F 67% 29.81 in 10.0 mi South 13.8 mph - N/A   Unknown
10:56 PM 79.0 °F - 70.0 °F 74% 29.82 in 10.0 mi South 13.8 mph - N/A   Unknown
11:56 PM 78.1 °F - 70.0 °F 76% 29.83 in 10.0 mi South 12.7 mph - N/A   Unknown